Thursday, January 29, 2015
14:22 UTC
  |  Log In   |  Register Free
Airport Search:

Henderson Field Airport
(KACZ)

Henderson Field Airport Diagram
No Airport Diagram Available

FAA data valid effective January 08, 2015 - March 05, 2015 (unless otherwise noted).

 
 
 
 
 
 
 
 
 
 
 
 
 
 

Current Aviation Weather for Henderson Field Airport (KACZ)

METAR data is unavailable for ACZ. The nearest METAR location is at KDPL (17 nm NE from ACZ).

The most recent METAR observation for KDPL was updated at: 1410
METAR Summary (Translated METAR)
KDPL
291355Z AUTO 00000KT 10SM CLR M01/M05 A3039 RMK AO2 T10121046
(17 nm NE from KACZ)
KOAJ
291355Z AUTO 00000KT 10SM CLR M01/M08 A3039 RMK AO1
(20.4 nm NE from KACZ)
TAF Summary (Translated TAF)
KOAJ
(20.9 nm SE from KDPL)
291122Z 2912/3012 VRB03KT P6SM SKC FM291600 21006KT P6SM OVC150 FM300000 19006KT P6SM OVC080 FM300800 24007KT P6SM VCSH OVC050 AMD LTD TO CLD VIS AND WIND
  Airport Weather Conditions for KACZ

Current weather conditions are
not available for ACZ


The nearest NOAA weather station
is at DPL, (17 nm NE from ACZ)
  
 Current Weather at DPL
30° F
Fair
North winds at 0.0 mph
DPL NOAA Radar

Pressure: 30.39 in
Humidity: 78%
Wind: Calm
Dew Point: 23.7°F
Visibility: 10.00 mi


Airport Weather Forecast for KACZ

Translated METAR and TAF for KDPL
Translated METAR for KDPL (1422 UTC 29 January 2015)
found at http://aviationweather.gov/adds/metars/
 
METAR text: KDPL 291415Z AUTO 00000KT 10SM CLR 00/M06 A3040 RMK AO2 T10021060
Conditions at: KDPL (KENANSVILLE/DUPL, NC, US) observed 1415 UTC 29 January 2015
Temperature: -0.2°C (32°F)
Dewpoint: -6.0°C (21°F) [RH = 65%]
Pressure (altimeter): 30.40 inches Hg (1029.5 mb)
Winds: calm
Visibility: 10 or more miles (16+ km)
Ceiling: at least 12,000 feet AGL
Clouds: sky clear below 12,000 feet AGL
Weather: automated observation with no human augmentation;
there may or may not be significant weather present at this time
Translated TAF for KDPL

There is no translated TAF available for this airport

Find All Airport Services Find A Hotel Find A Rental Car Find A Golf Course Find A Restaurant $100 Hamburger



FBO's on the Field
FBO Company Facility Photos Services Transportation Aviation Fuel Prices: Prices include tax
Catering Weather Repair Courtesy Rental Type 100LL JetA JetA+ MOGAS 8087
 
Henderson Field

This FBO has not yet been rated
FS:Phillips 66
Last Updated: Jan-12
Login to update fuel prices
SS:
Contact Henderson FieldMore FBO Information
 
Add another FBO Facility Photos Catering Weather Repair Courtesy Rental Type 100LL JetA JetA+ MOGAS 8087
Services Transportation Aviation Fuel Prices: Prices include tax


model-print
model-print
model-print
model-print